Showing default

YAOGAN-30 D, 43028

Orbit data source: Space-Track

YAOGAN-30 D, 43028 is a payload satellite owned by PLA SSF (CN) in LEO that was launched on Fri, 24 Nov 2017 UTC via a CHANG ZHENG 2C launch vehicle from the Xichang Space Center, China (XSC). Payload-class satellites include a variety of spacecraft equipped with specific instruments for various scientific and technological missions. These include communications satellites like Starlink; space stations such as the ISS; scientific satellites like the Hubble; Earth observation satellites from companies like Planet Labs, Umbra, and HawkEye 360; GPS; miniature CubeSats for education and research; and military/defense satellites.

Loading next visibility...
Identifier
43028, 2017-075A
Orbit
LEO
Country
Flag of CNCN / PRC
Related business
Manufacturer
SECM
Mission
Operational Defense Sigint
Bus & Motor
Unknown
Mass
~500 kg wet, ~500 kg dry
Launch date (UTC)
2017-11-24 (9 years ago)
Launch vehicle
CHANG ZHENG 2C
Launch site
Xichang Space Center, China (XSC)
Object type
Payload
Rocket body
Debris
Shape & HBR
Box + 2 Pan, 0.5 m
Radar Cross Section
0.446 m², Large (>1 m²)

Expand to show TLE details & history
Last TLE update: 22 hours ago

TLE from 22 hours ago
0 YAOGAN-30 D
1 43028U 17075A   26172.53269884  .00001767  00000-0  13138-3 0  9990
2 43028  34.9940 244.0445 0002109 330.0106  30.0482 15.02842120467904
Epoch: 2026-06-21T12:47Z
TLE epoch observation values (Epoch: 2026-06-21T12:47:05.179Z)
Latitude
0.00002°
Longitude
142.54133°
Altitude
555.788 km
Speed
7.587 km/s
True Right ascension
16h 16m 10s
True Declination
0° 00' 00"
Sunlit
Object was in full shadow at epoch
Visualization orbit readout
Latitude
Unknown
Longitude
Unknown
Altitude
Unknown
Speed
Unknown
Apparent Right ascension
Unknown
Apparent Declination
Unknown
Sunlit
N/A
Visualization observer readout
Local Sidereal Time
21:39:28
Azimuth
Unknown
Elevation
Unknown
Doppler factor
Unknown
Orbital elements
Apogee altitude
562.823 km
Perigee altitude
559.896 km
Semi-major axis
6,939.497 km
Eccentricity
0.00021
Inclination
34.994°
RAAN
244.0445°
Arg. of periapsis
330.0106°
True anomaly
30.0603°
Mean anomaly
30.0482°
Eccentric anomaly
30.05425°
Mean motion
3.75449 °/min
Orbital period
95.89 mins
BSTAR
0.00013138
Loading maneuver chart data...
Computing Atmospheric mass density...
Loading historical data...
Loading historical data...
Loading historical data...
Loading historical data...
Loading historical data...
Loading historical data...
Loading historical data...
Other satellites on launch #75 in the year 2017 (2017-11-24 UTC)

Documentation

Showing up to 5 results
|